This demonstration page uses our WeatherBlox Daily Observations layout. Learn more.

38.88101, -77.10428

Hourly Observations for August 4, 2017

Temp ( °F °C ) Dew Point ( °F °C ) Humidity (%) Winds ( mph kmh ) Pressure ( in mb ) Visibility ( mi km ) Precip ( " mm )
12:52 am 00:52 Clear 76 24.4 72 22.2 88 88 Calm 30.04 1017 10 16.0934 0 0
1:52 am 01:52 Clear 77 25 71 21.7 82 82 S 7 11 30.03 1017 10 16.0934 0 0
2:52 am 02:52 Clear 76 24.4 71 21.7 85 85 S 8 13 30.02 1017 10 16.0934 0 0
3:52 am 03:52 Clear 76 24.4 70 21.1 82 82 S 8 13 30.02 1017 10 16.0934 0 0
4:52 am 04:52 Clear 75 23.9 70 21.1 84 84 S 7 11 30.02 1017 10 16.0934 0 0
5:52 am 05:52 Partly Cloudy 75 23.9 69 20.6 82 82 SSW 8 13 30.02 1017 10 16.0934 0 0
6:52 am 06:52 Partly Cloudy 75 23.9 70 21.1 84 84 S 8 13 30.02 1017 10 16.0934 0 0
7:52 am 07:52 Mostly Sunny 76 24.4 70 21.1 82 82 SSW 9 15 30.01 1016 10 16.0934 0 0
8:52 am 08:52 Mostly Sunny 78 25.6 72 22.2 82 82 S 9 15 30.02 1017 10 16.0934 0 0
9:52 am 09:52 Mostly Sunny 80 26.7 72 22.2 76 76 S 9 15 30.02 1017 10 16.0934 0 0
10:52 am 10:52 Sunny 82 27.8 72 22.2 72 72 S 9 15 30.02 1017 10 16.0934 0 0
11:52 am 11:52 Mostly Sunny 85 29.4 72 22.2 65 65 S 10 17 30 1016 10 16.0934 0 0
12:52 pm 12:52 Mostly Sunny 88 31.1 74 23.3 63 63 S 9 15 29.98 1015 10 16.0934 0 0
1:52 pm 13:52 Mostly Sunny 89 31.7 71 21.7 55 55 S 13 20 29.96 1015 10 16.0934 0 0
2:52 pm 14:52 Partly Cloudy 89 31.7 70 21.1 53 53 S 14 22 29.93 1013 10 16.0934 0 0
3:52 pm 15:52 Partly Cloudy 89 31.7 70 21.1 53 53 S 14 22 29.91 1013 10 16.0934 0 0
4:52 pm 16:52 Partly Cloudy 88 31.1 70 21.1 55 55 S 14 22 29.9 1013 10 16.0934 0 0
5:52 pm 17:52 Mostly Sunny 87 30.6 69 20.6 55 55 SSE 16 26 29.88 1012 10 16.0934 0 0
6:52 pm 18:52 Mostly Sunny 85 29.4 70 21.1 61 61 SE 12 19 29.87 1011 10 16.0934 0 0
7:52 pm 19:52 Partly Cloudy 83 28.3 69 20.6 63 63 SSE 12 19 29.87 1012 10 16.0934 0 0
8:52 pm 20:52 Mostly Cloudy 81 27.2 70 21.1 69 69 SSE 9 15 29.88 1012 10 16.0934 0 0
9:52 pm 21:52 Mostly Cloudy 80 26.7 71 21.7 74 74 SSE 14 22 29.87 1012 10 16.0934 0 0
10:52 pm 22:52 Mostly Cloudy 79 26.1 73 22.8 82 82 SSE 10 17 29.87 1012 10 16.0934 0 0
11:52 pm 23:52 Cloudy 79 26.1 73 22.8 82 82 S 13 20 29.87 1011 10 16.0934 0 0

Powered by AerisWeather